AUA801C LOWW-LGAV

Flight info

Callsign AUA801C
Flight time 1h 53m
Altitude 39000
Route ARSIN DCT NALOX DCT BABIT DCT NEVAK DCT RAXAD DCT MAKED UL617 SKP UM749 ROPOX
Aircraft A20N/M-SDE2E3FGHIRWXY/LB1

Departure

Time 2026-04-26 16:16
Airport Vienna International Airport (LOWW)

Arrival

Time 2026-04-26 18:10
Airport Athens Eleftherios Venizelos International Airport (LGAV)
Time Latitude Longitude Altitude Speed Heading
2026-04-26 15:57 48.11386 16.57247 623 ft 0 kts 206°
2026-04-26 16:13 48.11382 16.57244 609 ft 2 kts 206°
2026-04-26 16:13 48.11344 16.57221 614 ft 9 kts 191°
2026-04-26 16:13 48.11271 16.57279 612 ft 15 kts 180°
2026-04-26 16:14 48.11186 16.57344 620 ft 16 kts 119°
2026-04-26 16:14 48.11144 16.57476 618 ft 15 kts 115°
2026-04-26 16:14 48.11033 16.57633 609 ft 10 kts 196°
2026-04-26 16:15 48.10966 16.57576 612 ft 8 kts 221°
2026-04-26 16:15 48.10940 16.57489 614 ft 11 kts 269°
2026-04-26 16:15 48.10969 16.57366 622 ft 23 kts 296°
2026-04-26 16:16 48.11611 16.55432 643 ft 166 kts 294°
2026-04-26 16:16 48.12089 16.53765 1174 ft 186 kts 298°
2026-04-26 16:16 48.12406 16.51782 1935 ft 206 kts 278°
2026-04-26 16:16 48.12193 16.49565 2722 ft 221 kts 249°
2026-04-26 16:17 48.11281 16.47742 3850 ft 222 kts 221°
2026-04-26 16:17 48.09873 16.46761 4797 ft 230 kts 191°
2026-04-26 16:17 48.08269 16.46935 5682 ft 237 kts 167°
2026-04-26 16:17 48.06589 16.47415 6243 ft 256 kts 175°
2026-04-26 16:18 48.04757 16.47784 6795 ft 274 kts 176°
2026-04-26 16:18 48.00772 16.48535 8235 ft 295 kts 176°
2026-04-26 16:19 47.96658 16.48689 10096 ft 296 kts 198°
2026-04-26 16:19 47.94711 16.47545 10631 ft 310 kts 212°
2026-04-26 16:19 47.91360 16.44884 11277 ft 343 kts 212°
2026-04-26 16:20 47.88362 16.43108 12348 ft 356 kts 193°
2026-04-26 16:20 47.83366 16.43981 13916 ft 375 kts 167°
2026-04-26 16:20 47.80829 16.45010 14627 ft 380 kts 167°
2026-04-26 16:21 47.78255 16.46054 15365 ft 384 kts 167°
2026-04-26 16:21 47.75664 16.47093 16080 ft 388 kts 167°
2026-04-26 16:21 47.73044 16.48133 16799 ft 392 kts 167°
2026-04-26 16:21 47.70388 16.49180 17488 ft 396 kts 167°
2026-04-26 16:22 47.67711 16.50235 18185 ft 400 kts 166°
2026-04-26 16:22 47.65135 16.51850 18819 ft 406 kts 148°
2026-04-26 16:22 47.62959 16.54536 19429 ft 410 kts 131°
2026-04-26 16:22 47.61374 16.58050 20041 ft 412 kts 115°
2026-04-26 16:23 47.60247 16.61982 20610 ft 416 kts 109°
2026-04-26 16:23 47.59234 16.66012 21184 ft 419 kts 109°
2026-04-26 16:23 47.58004 16.69947 21751 ft 424 kts 122°
2026-04-26 16:23 47.56152 16.73288 22316 ft 426 kts 138°
2026-04-26 16:24 47.53749 16.75849 22891 ft 427 kts 154°
2026-04-26 16:24 47.50975 16.77416 23459 ft 425 kts 170°
2026-04-26 16:24 47.48052 16.77878 23987 ft 422 kts 185°
2026-04-26 16:24 47.45125 16.77604 24494 ft 422 kts 188°
2026-04-26 16:25 47.42186 16.77324 24999 ft 425 kts 186°
2026-04-26 16:25 47.39217 16.77255 25488 ft 428 kts 183°
2026-04-26 16:25 47.36267 16.77373 25973 ft 431 kts 181°
2026-04-26 16:25 47.33254 16.77603 26437 ft 434 kts 180°
2026-04-26 16:26 47.30232 16.77884 26880 ft 437 kts 180°
2026-04-26 16:26 47.28177 16.78085 27180 ft 438 kts 180°
2026-04-26 16:26 47.24121 16.78483 27757 ft 441 kts 180°
2026-04-26 16:26 47.21049 16.78781 28172 ft 444 kts 180°
2026-04-26 16:27 47.17959 16.79077 28559 ft 446 kts 180°
2026-04-26 16:27 47.14886 16.79370 28943 ft 449 kts 180°
2026-04-26 16:27 47.11762 16.79666 29301 ft 451 kts 180°
2026-04-26 16:27 47.08620 16.79964 29664 ft 454 kts 180°
2026-04-26 16:28 47.05456 16.80263 30024 ft 456 kts 180°
2026-04-26 16:28 47.02283 16.80563 30379 ft 458 kts 180°
2026-04-26 16:28 46.99096 16.80864 30680 ft 460 kts 180°
2026-04-26 16:28 46.95895 16.81166 30997 ft 462 kts 180°
2026-04-26 16:29 46.92678 16.81650 31310 ft 468 kts 172°
2026-04-26 16:29 46.89540 16.83038 31696 ft 474 kts 160°
2026-04-26 16:29 46.86633 16.85348 32039 ft 479 kts 148°
2026-04-26 16:29 46.84072 16.88470 32176 ft 481 kts 136°
2026-04-26 16:30 46.81967 16.92295 32197 ft 484 kts 124°
2026-04-26 16:30 46.80266 16.96464 32204 ft 485 kts 120°
2026-04-26 16:30 46.76947 17.05031 32209 ft 485 kts 122°
2026-04-26 16:31 46.73442 17.13426 32211 ft 485 kts 123°
2026-04-26 16:31 46.70451 17.20348 32208 ft 485 kts 124°
2026-04-26 16:32 46.66831 17.28662 32588 ft 487 kts 124°
2026-04-26 16:32 46.65020 17.32816 33002 ft 485 kts 124°
2026-04-26 16:32 46.63210 17.36961 33376 ft 485 kts 124°
2026-04-26 16:33 46.61398 17.41109 33754 ft 484 kts 124°
2026-04-26 16:33 46.59595 17.45227 34110 ft 484 kts 124°
2026-04-26 16:33 46.57784 17.49357 34418 ft 483 kts 124°
2026-04-26 16:33 46.55978 17.53472 34711 ft 483 kts 124°
2026-04-26 16:34 46.54167 17.57589 34996 ft 482 kts 124°
2026-04-26 16:34 46.52358 17.61698 35265 ft 482 kts 124°
2026-04-26 16:34 46.50551 17.65793 35533 ft 481 kts 124°
2026-04-26 16:34 46.48745 17.69883 35799 ft 481 kts 124°
2026-04-26 16:35 46.46938 17.73966 36059 ft 481 kts 124°
2026-04-26 16:35 46.45156 17.77989 36310 ft 480 kts 124°
2026-04-26 16:35 46.43351 17.82058 36570 ft 480 kts 124°
2026-04-26 16:35 46.41545 17.86122 36813 ft 479 kts 124°
2026-04-26 16:36 46.39739 17.90181 37038 ft 479 kts 124°
2026-04-26 16:36 46.37933 17.94235 37266 ft 479 kts 124°
2026-04-26 16:36 46.36127 17.98281 37484 ft 478 kts 124°
2026-04-26 16:36 46.34321 18.02324 37682 ft 478 kts 124°
2026-04-26 16:37 46.32509 18.06372 37892 ft 478 kts 124°
2026-04-26 16:37 46.30736 18.10328 38089 ft 478 kts 124°
2026-04-26 16:37 46.28921 18.14372 38287 ft 477 kts 124°
2026-04-26 16:37 46.27116 18.18389 38464 ft 478 kts 124°
2026-04-26 16:38 46.25305 18.22414 38627 ft 478 kts 124°
2026-04-26 16:38 46.23492 18.26436 38806 ft 477 kts 124°
2026-04-26 16:38 46.21672 18.30469 38955 ft 477 kts 124°
2026-04-26 16:38 46.19882 18.34428 39081 ft 477 kts 124°
2026-04-26 16:39 46.16248 18.42450 39171 ft 477 kts 124°
2026-04-26 16:39 46.12612 18.50456 39173 ft 477 kts 124°
2026-04-26 16:40 46.08975 18.58440 39164 ft 477 kts 124°
2026-04-26 16:40 46.05319 18.66443 39156 ft 477 kts 124°
2026-04-26 16:41 46.01659 18.74431 39149 ft 477 kts 124°
2026-04-26 16:41 45.98002 18.82391 39148 ft 477 kts 124°
2026-04-26 16:42 45.94151 18.90080 39144 ft 476 kts 133°
2026-04-26 16:42 45.89407 18.96628 39140 ft 472 kts 145°
2026-04-26 16:43 45.84060 19.02058 39141 ft 470 kts 148°
2026-04-26 16:43 45.78705 19.07436 39138 ft 471 kts 148°
2026-04-26 16:44 45.73335 19.12826 39146 ft 471 kts 148°
2026-04-26 16:44 45.67963 19.18202 39142 ft 471 kts 148°
2026-04-26 16:45 45.62577 19.23577 39144 ft 472 kts 148°
2026-04-26 16:45 45.57190 19.28941 39141 ft 472 kts 148°
2026-04-26 16:46 45.51788 19.34306 39147 ft 473 kts 148°
2026-04-26 16:46 45.46386 19.39659 39144 ft 473 kts 148°
2026-04-26 16:47 45.41000 19.44982 39152 ft 473 kts 148°
2026-04-26 16:47 45.35578 19.50329 39155 ft 474 kts 148°
2026-04-26 16:48 45.30157 19.55663 39153 ft 474 kts 148°
2026-04-26 16:48 45.24729 19.60990 39149 ft 474 kts 148°
2026-04-26 16:49 45.19297 19.66309 39153 ft 475 kts 148°
2026-04-26 16:49 45.13860 19.71621 39151 ft 475 kts 148°
2026-04-26 16:50 45.08413 19.76929 39154 ft 475 kts 148°
2026-04-26 16:50 45.02966 19.82225 39149 ft 474 kts 148°
2026-04-26 16:51 44.97524 19.87503 39144 ft 474 kts 148°
2026-04-26 16:51 44.92084 19.92767 39138 ft 474 kts 148°
2026-04-26 16:52 44.87563 19.97133 39139 ft 473 kts 148°
2026-04-26 16:52 44.81213 20.03251 39136 ft 473 kts 147°
2026-04-26 16:53 44.75783 20.08469 39133 ft 472 kts 147°
2026-04-26 16:53 44.70393 20.13637 39131 ft 472 kts 147°
2026-04-26 16:54 44.64962 20.18832 39133 ft 471 kts 147°
2026-04-26 16:54 44.59533 20.24013 39130 ft 471 kts 147°
2026-04-26 16:55 44.54112 20.29175 39133 ft 471 kts 147°
2026-04-26 16:55 44.48685 20.34330 39129 ft 470 kts 147°
2026-04-26 16:56 44.40555 20.42031 39126 ft 470 kts 147°
2026-04-26 16:57 44.35165 20.47123 39127 ft 470 kts 147°
2026-04-26 16:57 44.27035 20.54780 39129 ft 470 kts 147°
2026-04-26 16:58 44.22519 20.59026 39125 ft 469 kts 147°
2026-04-26 16:59 44.13376 20.67284 39119 ft 469 kts 149°
2026-04-26 17:00 44.02379 20.77033 39113 ft 468 kts 148°
2026-04-26 17:00 43.94172 20.84308 39112 ft 468 kts 148°
2026-04-26 17:01 43.88679 20.89163 39111 ft 468 kts 148°
2026-04-26 17:01 43.83178 20.94015 39113 ft 468 kts 148°
2026-04-26 17:02 43.77677 20.98855 39114 ft 468 kts 148°
2026-04-26 17:02 43.72183 21.03679 39111 ft 467 kts 148°
2026-04-26 17:03 43.66687 21.08493 39109 ft 467 kts 148°
2026-04-26 17:03 43.61195 21.13294 39107 ft 466 kts 148°
2026-04-26 17:04 43.55721 21.18069 39103 ft 466 kts 148°
2026-04-26 17:04 43.50246 21.22834 39103 ft 465 kts 148°
2026-04-26 17:05 43.44768 21.27592 39101 ft 465 kts 148°
2026-04-26 17:05 43.39298 21.32332 39101 ft 464 kts 148°
2026-04-26 17:06 43.33829 21.37060 39097 ft 464 kts 148°
2026-04-26 17:06 43.28365 21.41775 39097 ft 463 kts 148°
2026-04-26 17:07 43.22907 21.46474 39089 ft 463 kts 148°
2026-04-26 17:07 43.17446 21.51166 39086 ft 463 kts 148°
2026-04-26 17:08 43.11985 21.55847 39083 ft 462 kts 148°
2026-04-26 17:08 43.06534 21.60511 39084 ft 462 kts 148°
2026-04-26 17:09 43.02926 21.63592 39083 ft 462 kts 148°
2026-04-26 17:09 42.95632 21.69808 39083 ft 462 kts 148°
2026-04-26 17:10 42.90179 21.74444 39078 ft 462 kts 148°
2026-04-26 17:10 42.84722 21.79073 39079 ft 462 kts 148°
2026-04-26 17:11 42.79293 21.83669 39079 ft 462 kts 148°
2026-04-26 17:11 42.73795 21.88313 39076 ft 462 kts 148°
2026-04-26 17:12 42.65631 21.95192 39080 ft 462 kts 148°
2026-04-26 17:13 42.58354 22.01304 39085 ft 462 kts 148°
2026-04-26 17:14 42.50124 22.08198 39082 ft 462 kts 148°
2026-04-26 17:14 42.41955 22.15019 39082 ft 461 kts 148°
2026-04-26 17:15 42.33686 22.21701 39071 ft 461 kts 154°
2026-04-26 17:16 42.27708 22.24825 39064 ft 460 kts 165°
2026-04-26 17:16 42.21430 22.26512 39056 ft 459 kts 171°
2026-04-26 17:17 42.15124 22.27980 39048 ft 459 kts 171°
2026-04-26 17:17 42.08828 22.29463 39047 ft 459 kts 171°
2026-04-26 17:18 42.02524 22.30944 39037 ft 459 kts 171°
2026-04-26 17:18 41.96227 22.32420 39033 ft 459 kts 171°
2026-04-26 17:19 41.86824 22.34617 39024 ft 459 kts 171°
2026-04-26 17:19 41.80529 22.36085 39021 ft 459 kts 171°
2026-04-26 17:20 41.75244 22.37314 39022 ft 459 kts 171°
2026-04-26 17:20 41.67921 22.39015 39018 ft 459 kts 171°
2026-04-26 17:21 41.61625 22.40474 39011 ft 459 kts 171°
2026-04-26 17:21 41.55323 22.41931 39010 ft 459 kts 171°
2026-04-26 17:22 41.49031 22.43384 39007 ft 459 kts 171°
2026-04-26 17:22 41.42734 22.44834 39000 ft 458 kts 171°
2026-04-26 17:23 41.36451 22.46279 38995 ft 458 kts 171°
2026-04-26 17:23 41.30165 22.47721 38990 ft 458 kts 171°
2026-04-26 17:24 41.23932 22.49148 38982 ft 457 kts 171°
2026-04-26 17:24 41.17650 22.50600 38980 ft 457 kts 168°
2026-04-26 17:25 41.11549 22.52964 38975 ft 457 kts 158°
2026-04-26 17:25 41.05841 22.56659 38969 ft 456 kts 151°
2026-04-26 17:26 41.00298 22.60642 38969 ft 456 kts 151°
2026-04-26 17:26 40.94700 22.64624 38958 ft 456 kts 152°
2026-04-26 17:27 40.89105 22.68588 38962 ft 456 kts 152°
2026-04-26 17:27 40.83508 22.72546 38961 ft 456 kts 152°
2026-04-26 17:28 40.77894 22.76509 38954 ft 457 kts 152°
2026-04-26 17:28 40.72290 22.80458 38960 ft 457 kts 152°
2026-04-26 17:29 40.67629 22.83748 38962 ft 458 kts 154°
2026-04-26 17:29 40.60998 22.88412 38964 ft 466 kts 154°
2026-04-26 17:30 40.55271 22.92423 38968 ft 465 kts 154°
2026-04-26 17:30 40.49585 22.96398 38966 ft 466 kts 154°
2026-04-26 17:31 40.43769 23.00107 38966 ft 463 kts 162°
2026-04-26 17:31 40.37741 23.03085 38969 ft 463 kts 162°
2026-04-26 17:32 40.31715 23.06075 38968 ft 462 kts 162°
2026-04-26 17:32 40.25694 23.09063 38977 ft 462 kts 162°
2026-04-26 17:33 40.19679 23.12045 38980 ft 461 kts 162°
2026-04-26 17:34 40.10706 23.16481 38989 ft 461 kts 162°
2026-04-26 17:34 40.04703 23.19442 38987 ft 461 kts 162°
2026-04-26 17:35 39.98695 23.22401 38992 ft 461 kts 162°
2026-04-26 17:35 39.92691 23.25352 38993 ft 461 kts 162°
2026-04-26 17:36 39.86678 23.28302 38993 ft 461 kts 162°
2026-04-26 17:36 39.80674 23.31244 38995 ft 462 kts 162°
2026-04-26 17:37 39.74651 23.34189 38997 ft 462 kts 162°
2026-04-26 17:37 39.68627 23.37127 39001 ft 463 kts 162°
2026-04-26 17:38 39.59576 23.41529 39002 ft 463 kts 162°
2026-04-26 17:38 39.53533 23.44462 39006 ft 464 kts 162°
2026-04-26 17:39 39.47483 23.47393 39004 ft 464 kts 162°
2026-04-26 17:39 39.41424 23.50322 39004 ft 465 kts 162°
2026-04-26 17:40 39.37404 23.52267 39002 ft 465 kts 162°
2026-04-26 17:40 39.29317 23.56181 39008 ft 466 kts 162°
2026-04-26 17:41 39.23239 23.59107 38996 ft 466 kts 162°
2026-04-26 17:41 39.17070 23.61648 38992 ft 463 kts 172°
2026-04-26 17:42 39.10709 23.62693 38998 ft 461 kts 177°
2026-04-26 17:42 39.04330 23.63624 39003 ft 461 kts 177°
2026-04-26 17:43 38.97957 23.64566 39007 ft 461 kts 176°
2026-04-26 17:43 38.91587 23.65508 38967 ft 459 kts 176°
2026-04-26 17:44 38.88423 23.65975 38403 ft 457 kts 176°
2026-04-26 17:44 38.85292 23.66435 37336 ft 460 kts 176°
2026-04-26 17:44 38.82112 23.66902 36510 ft 457 kts 176°
2026-04-26 17:44 38.78974 23.67364 35784 ft 451 kts 176°
2026-04-26 17:45 38.75873 23.67820 35069 ft 446 kts 176°
2026-04-26 17:45 38.72799 23.68271 34362 ft 441 kts 176°
2026-04-26 17:45 38.69755 23.68717 33636 ft 437 kts 176°
2026-04-26 17:45 38.66740 23.69158 32851 ft 433 kts 176°
2026-04-26 17:46 38.63770 23.69592 32137 ft 428 kts 176°
2026-04-26 17:46 38.60823 23.70022 31417 ft 424 kts 176°
2026-04-26 17:46 38.57904 23.70448 30707 ft 420 kts 176°
2026-04-26 17:46 38.55005 23.70870 30002 ft 417 kts 176°
2026-04-26 17:47 38.52138 23.71287 29244 ft 412 kts 176°
2026-04-26 17:47 38.51212 23.71422 29016 ft 410 kts 176°
2026-04-26 17:47 38.46544 23.72101 27858 ft 402 kts 175°
2026-04-26 17:47 38.43774 23.72503 27165 ft 397 kts 175°
2026-04-26 17:48 38.41042 23.72900 26498 ft 393 kts 175°
2026-04-26 17:48 38.38333 23.73292 25843 ft 389 kts 175°
2026-04-26 17:48 38.35658 23.73680 25208 ft 385 kts 175°
2026-04-26 17:48 38.33009 23.74063 24586 ft 381 kts 175°
2026-04-26 17:49 38.30382 23.74443 23987 ft 377 kts 175°
2026-04-26 17:49 38.27785 23.74819 23346 ft 374 kts 175°
2026-04-26 17:49 38.25214 23.75191 22671 ft 370 kts 174°
2026-04-26 17:49 38.22670 23.75558 22009 ft 366 kts 174°
2026-04-26 17:50 38.20157 23.75921 21477 ft 359 kts 174°
2026-04-26 17:50 38.17711 23.76513 21078 ft 363 kts 162°
2026-04-26 17:50 38.15401 23.77795 20660 ft 361 kts 148°
2026-04-26 17:50 38.13343 23.79570 20248 ft 355 kts 144°
2026-04-26 17:51 38.11325 23.81365 19843 ft 353 kts 144°
2026-04-26 17:51 38.09313 23.83142 19443 ft 351 kts 144°
2026-04-26 17:51 38.07320 23.84895 19046 ft 347 kts 144°
2026-04-26 17:51 38.05331 23.86642 18654 ft 347 kts 144°
2026-04-26 17:52 38.03348 23.88383 18244 ft 346 kts 144°
2026-04-26 17:52 38.01377 23.90112 17838 ft 343 kts 144°
2026-04-26 17:52 37.99427 23.91822 17448 ft 339 kts 144°
2026-04-26 17:52 37.97497 23.93514 17064 ft 336 kts 144°
2026-04-26 17:53 37.95576 23.95197 16687 ft 336 kts 144°
2026-04-26 17:53 37.94304 23.96312 16428 ft 335 kts 144°
2026-04-26 17:53 37.92395 23.97983 16052 ft 332 kts 144°
2026-04-26 17:54 37.88621 24.01282 15303 ft 328 kts 144°
2026-04-26 17:54 37.86744 24.02922 14933 ft 328 kts 144°
2026-04-26 17:54 37.84266 24.05084 14430 ft 324 kts 144°
2026-04-26 17:54 37.83019 24.06170 14192 ft 320 kts 144°
2026-04-26 17:55 37.81181 24.07773 13886 ft 323 kts 144°
2026-04-26 17:55 37.79364 24.09356 13642 ft 320 kts 144°
2026-04-26 17:55 37.77539 24.10945 13248 ft 317 kts 144°
2026-04-26 17:55 37.75728 24.12521 12741 ft 315 kts 144°
2026-04-26 17:56 37.73935 24.14081 12337 ft 311 kts 144°
2026-04-26 17:56 37.70352 24.17194 11609 ft 310 kts 144°
2026-04-26 17:57 37.67662 24.21213 10885 ft 304 kts 104°
2026-04-26 17:57 37.67501 24.23829 10550 ft 299 kts 78°
2026-04-26 17:57 37.68218 24.26241 10209 ft 293 kts 53°
2026-04-26 17:57 37.69659 24.27979 9896 ft 287 kts 27°
2026-04-26 17:58 37.75350 24.28029 8950 ft 277 kts 349°
2026-04-26 17:59 37.79131 24.27365 8319 ft 271 kts 352°
2026-04-26 17:59 37.80968 24.27136 8215 ft 259 kts 353°
2026-04-26 17:59 37.82705 24.26945 8075 ft 241 kts 353°
2026-04-26 17:59 37.84320 24.26776 7910 ft 226 kts 353°
2026-04-26 18:00 37.85873 24.26613 7467 ft 222 kts 353°
2026-04-26 18:00 37.87409 24.26450 7031 ft 220 kts 353°
2026-04-26 18:00 37.88932 24.26287 6603 ft 218 kts 353°
2026-04-26 18:00 37.90423 24.26128 6328 ft 216 kts 353°
2026-04-26 18:01 37.91938 24.25963 6062 ft 218 kts 353°
2026-04-26 18:01 37.93439 24.25801 5808 ft 216 kts 353°
2026-04-26 18:01 37.94947 24.25638 5555 ft 218 kts 353°
2026-04-26 18:01 37.96450 24.25475 5290 ft 216 kts 353°
2026-04-26 18:02 37.97951 24.25313 5023 ft 217 kts 353°
2026-04-26 18:02 37.98940 24.25170 4872 ft 216 kts 349°
2026-04-26 18:02 38.00876 24.24491 4538 ft 216 kts 338°
2026-04-26 18:02 38.02251 24.23720 4268 ft 214 kts 335°
2026-04-26 18:03 38.03606 24.22963 4206 ft 217 kts 336°
2026-04-26 18:03 38.04990 24.22201 4109 ft 216 kts 336°
2026-04-26 18:03 38.06311 24.21305 4015 ft 216 kts 324°
2026-04-26 18:03 38.07480 24.20094 3804 ft 217 kts 320°
2026-04-26 18:04 38.08635 24.18864 3535 ft 215 kts 320°
2026-04-26 18:04 38.09630 24.17473 3299 ft 216 kts 296°
2026-04-26 18:04 38.09953 24.15615 3078 ft 217 kts 275°
2026-04-26 18:05 38.09743 24.11838 3016 ft 220 kts 244°
2026-04-26 18:05 38.08842 24.10274 3014 ft 221 kts 226°
2026-04-26 18:05 38.07702 24.08999 3032 ft 212 kts 219°
2026-04-26 18:05 38.06578 24.07911 3014 ft 191 kts 218°
2026-04-26 18:06 38.05578 24.06951 2892 ft 169 kts 218°
2026-04-26 18:06 38.04674 24.06086 2661 ft 156 kts 218°
2026-04-26 18:06 38.03847 24.05293 2446 ft 141 kts 218°
2026-04-26 18:06 38.03086 24.04565 2276 ft 137 kts 218°
2026-04-26 18:07 38.02325 24.03837 2091 ft 136 kts 217°
2026-04-26 18:07 38.01574 24.03118 1906 ft 135 kts 217°
2026-04-26 18:07 38.00824 24.02401 1738 ft 135 kts 217°
2026-04-26 18:07 38.00329 24.01928 1623 ft 134 kts 217°
2026-04-26 18:08 37.99343 24.00985 1379 ft 134 kts 217°
2026-04-26 18:08 37.98602 24.00278 1202 ft 132 kts 217°
2026-04-26 18:08 37.97870 23.99578 1026 ft 131 kts 217°
2026-04-26 18:08 37.97154 23.98894 838 ft 127 kts 217°
2026-04-26 18:09 37.96455 23.98226 678 ft 125 kts 217°
2026-04-26 18:09 37.95759 23.97562 509 ft 125 kts 217°
2026-04-26 18:09 37.95062 23.96896 348 ft 125 kts 217°
2026-04-26 18:09 37.94407 23.96271 290 ft 105 kts 217°
2026-04-26 18:10 37.94063 23.95952 283 ft 21 kts 217°
2026-04-26 18:10 37.93943 23.95834 279 ft 25 kts 224°
2026-04-26 18:10 37.93862 23.95704 279 ft 18 kts 237°
2026-04-26 18:10 37.93813 23.95573 292 ft 14 kts 247°
2026-04-26 18:11 37.93778 23.95469 295 ft 12 kts 247°
2026-04-26 18:11 37.93741 23.95379 298 ft 12 kts 234°
2026-04-26 18:11 37.93676 23.95304 300 ft 14 kts 217°
2026-04-26 18:11 37.93587 23.95217 298 ft 20 kts 217°
2026-04-26 18:12 37.93463 23.95100 299 ft 21 kts 214°
2026-04-26 18:12 37.93396 23.94974 301 ft 16 kts 284°
2026-04-26 18:12 37.93457 23.94859 303 ft 15 kts 325°
2026-04-26 18:12 37.93538 23.94833 301 ft 9 kts 306°
2026-04-26 18:13 37.93563 23.94792 300 ft 0 kts 307°